Tracking 18628 objects as of 24-April-2017
HD Live streaming from Space Station
objects crossing your sky now

DSCS 3-1

Track DSCS 3-1 now!
DSCS 3-1 is classified as:


NORAD ID: 13637
Int'l Code: 1982-106B
Perigee: 36,421.2 km
Apogee: 36,564.4 km
Inclination: 15.4 °
Period: 1,472.0 minutes
Semi major axis: 42863 km
RCS: Unknown
Launch date: October 30, 1982
Source: United States (US)
Launch site: AIR FORCE EASTERN TEST RANGE (AFETR)
Your satellite tracking list
Your tracking list is empty





NASA's NSSDC Master Catalog

Two Line Element Set (TLE):
1 13637U 82106B   16361.93056378 0.00000000  00000-0  00000-0 0    08
2 13637  15.4251   1.9316 0016703 116.4927 243.7129  0.97828849    00
Source of the keplerian elements: McCants